Time,TemperatureF,DewpointF,PressureIn,WindDirection,WindDirectionDegrees,WindSpeedMPH,WindSpeedGustMPH,Humidity,HourlyPrecipIn,Conditions,Clouds,dailyrainin,SoftwareType,DateUTC
2013-04-08 00:02:00,59.3,41.7,29.72,SW,234,13.0,13.0,52,0.00,,CLR,0.00,VWS V14.01,2013-04-08 07:02:00,
2013-04-08 00:07:00,59.2,41.6,29.72,West,263,5.0,5.0,52,0.00,,CLR,0.00,VWS V14.01,2013-04-08 07:07:00,
2013-04-08 00:13:00,59.1,42.0,29.72,WSW,240,6.0,11.0,53,0.00,,CLR,0.00,VWS V14.01,2013-04-08 07:13:00,
2013-04-08 00:18:00,59.1,41.5,29.71,SW,234,6.0,12.0,52,0.00,,CLR,0.00,VWS V14.01,2013-04-08 07:18:00,
2013-04-08 00:23:00,59.2,41.6,29.71,WNW,303,7.0,11.0,52,0.00,,CLR,0.00,VWS V14.01,2013-04-08 07:23:00,
2013-04-08 00:28:00,59.1,42.0,29.71,West,281,5.0,12.0,53,0.00,,CLR,0.00,VWS V14.01,2013-04-08 07:28:00,
2013-04-08 00:35:00,59.1,42.0,29.70,WNW,290,16.0,24.0,53,0.00,,CLR,0.00,VWS V14.01,2013-04-08 07:35:00,
2013-04-08 00:40:00,59.1,42.0,29.70,West,267,14.0,20.0,53,0.00,,CLR,0.00,VWS V14.01,2013-04-08 07:40:00,
2013-04-08 00:45:00,59.1,42.0,29.70,West,268,12.0,18.0,53,0.00,,CLR,0.00,VWS V14.01,2013-04-08 07:45:00,
2013-04-08 00:50:00,59.1,42.0,29.70,WNW,300,18.0,18.0,53,0.00,,CLR,0.00,VWS V14.01,2013-04-08 07:50:00,
2013-04-08 00:55:00,59.0,41.9,29.70,West,263,11.0,20.0,53,0.00,,CLR,0.00,VWS V14.01,2013-04-08 07:55:00,
2013-04-08 01:01:00,59.0,41.9,29.70,WNW,285,15.0,15.0,53,0.00,,CLR,0.00,VWS V14.01,2013-04-08 08:01:00,
2013-04-08 01:06:00,59.1,42.0,29.69,West,261,8.0,8.0,53,0.00,,CLR,0.00,VWS V14.01,2013-04-08 08:06:00,
2013-04-08 01:11:00,59.1,42.0,29.68,WSW,241,11.0,11.0,53,0.00,,CLR,0.00,VWS V14.01,2013-04-08 08:11:00,
2013-04-08 01:17:00,59.1,41.5,29.67,WSW,241,7.0,7.0,52,0.00,,CLR,0.00,VWS V14.01,2013-04-08 08:17:00,
2013-04-08 01:22:00,59.0,41.4,29.68,WNW,286,13.0,13.0,52,0.00,,CLR,0.00,VWS V14.01,2013-04-08 08:22:00,
2013-04-08 01:27:00,58.9,41.3,29.67,West,269,5.0,11.0,52,0.00,,CLR,0.00,VWS V14.01,2013-04-08 08:27:00,
2013-04-08 01:32:00,58.8,41.2,29.66,SW,235,8.0,9.0,52,0.00,,CLR,0.00,VWS V14.01,2013-04-08 08:32:00,
2013-04-08 01:38:00,58.7,40.6,29.66,WSW,245,7.0,7.0,51,0.00,,CLR,0.00,VWS V14.01,2013-04-08 08:38:00,
2013-04-08 01:43:00,58.7,40.1,29.66,SW,225,5.0,7.0,50,0.00,,CLR,0.00,VWS V14.01,2013-04-08 08:43:00,
2013-04-08 01:48:00,58.7,39.6,29.65,SW,233,3.0,3.0,49,0.00,,CLR,0.00,VWS V14.01,2013-04-08 08:48:00,
2013-04-08 01:53:00,58.3,39.2,29.65,WSW,237,4.0,5.0,49,0.00,,CLR,0.00,VWS V14.01,2013-04-08 08:53:00,
2013-04-08 01:58:00,58.1,39.1,29.64,WSW,238,3.0,6.0,49,0.00,,CLR,0.00,VWS V14.01,2013-04-08 08:58:00,
2013-04-08 02:05:00,57.8,39.3,29.64,WSW,240,3.0,11.0,50,0.00,,CLR,0.00,VWS V14.01,2013-04-08 09:05:00,
2013-04-08 02:10:00,57.7,39.2,29.65,WSW,242,6.0,12.0,50,0.00,,CLR,0.00,VWS V14.01,2013-04-08 09:10:00,
2013-04-08 02:15:00,57.5,38.5,29.65,West,267,6.0,6.0,49,0.00,,CLR,0.00,VWS V14.01,2013-04-08 09:15:00,
2013-04-08 02:20:00,57.3,38.8,29.66,WNW,294,6.0,8.0,50,0.00,,CLR,0.00,VWS V14.01,2013-04-08 09:20:00,
2013-04-08 02:26:00,56.7,42.5,29.65,West,278,16.0,16.0,59,0.00,,CLR,0.00,VWS V14.01,2013-04-08 09:26:00,
2013-04-08 02:31:00,55.8,42.6,29.65,West,279,14.0,14.0,61,0.00,,CLR,0.00,VWS V14.01,2013-04-08 09:31:00,
2013-04-08 02:36:00,55.4,42.6,29.65,West,263,20.0,20.0,62,0.00,,CLR,0.00,VWS V14.01,2013-04-08 09:36:00,
2013-04-08 02:42:00,54.9,43.0,29.64,West,276,18.0,18.0,64,0.00,,CLR,0.00,VWS V14.01,2013-04-08 09:42:00,
2013-04-08 02:47:00,54.5,42.6,29.64,WNW,286,9.0,9.0,64,0.00,,CLR,0.00,VWS V14.01,2013-04-08 09:47:00,
2013-04-08 02:52:00,54.2,42.3,29.64,WNW,288,12.0,15.0,64,0.00,,CLR,0.00,VWS V14.01,2013-04-08 09:52:00,
2013-04-08 02:57:00,53.9,42.0,29.64,West,264,23.0,23.0,64,0.00,,CLR,0.00,VWS V14.01,2013-04-08 09:57:00,
2013-04-08 03:02:00,53.8,41.9,29.64,WNW,290,22.0,22.0,64,0.00,,CLR,0.00,VWS V14.01,2013-04-08 10:02:00,
2013-04-08 03:07:00,53.6,42.1,29.63,WNW,282,8.0,13.0,65,0.00,,CLR,0.00,VWS V14.01,2013-04-08 10:07:00,
2013-04-08 03:13:00,53.2,42.2,29.63,West,279,16.0,18.0,66,0.00,,CLR,0.00,VWS V14.01,2013-04-08 10:13:00,
2013-04-08 03:18:00,52.9,42.3,29.63,WNW,290,6.0,7.0,67,0.00,,CLR,0.00,VWS V14.01,2013-04-08 10:18:00,
2013-04-08 03:23:00,52.6,42.3,29.63,West,281,7.0,22.0,68,0.00,,CLR,0.00,VWS V14.01,2013-04-08 10:23:00,
2013-04-08 03:28:00,52.6,42.3,29.63,WNW,287,8.0,14.0,68,0.00,,CLR,0.00,VWS V14.01,2013-04-08 10:28:00,
2013-04-08 03:34:00,52.4,42.2,29.63,West,265,11.0,16.0,68,0.00,,CLR,0.00,VWS V14.01,2013-04-08 10:34:00,
2013-04-08 03:39:00,52.2,42.0,29.63,WNW,287,8.0,9.0,68,0.00,,CLR,0.00,VWS V14.01,2013-04-08 10:39:00,
2013-04-08 03:44:00,51.9,41.7,29.62,West,275,7.0,20.0,68,0.00,,CLR,0.00,VWS V14.01,2013-04-08 10:44:00,
2013-04-08 03:49:00,51.6,41.4,29.62,West,279,13.0,18.0,68,0.00,,CLR,0.00,VWS V14.01,2013-04-08 10:49:00,
2013-04-08 03:54:00,51.4,41.2,29.62,NW,306,12.0,22.0,68,0.00,,CLR,0.00,VWS V14.01,2013-04-08 10:54:00,
2013-04-08 03:59:00,51.2,40.6,29.62,West,263,18.0,18.0,67,0.00,,CLR,0.00,VWS V14.01,2013-04-08 10:59:00,
2013-04-08 04:04:00,50.9,40.3,29.62,West,277,12.0,18.0,67,0.00,,FEW037,0.00,VWS V14.01,2013-04-08 11:04:00,
2013-04-08 04:09:00,50.7,40.5,29.62,West,268,14.0,14.0,68,0.00,,FEW037,0.00,VWS V14.01,2013-04-08 11:09:00,
2013-04-08 04:15:00,50.6,40.4,29.61,West,277,9.0,16.0,68,0.00,,FEW037,0.00,VWS V14.01,2013-04-08 11:15:00,
2013-04-08 04:20:00,50.5,40.3,29.60,West,279,13.0,13.0,68,0.00,,FEW037,0.00,VWS V14.01,2013-04-08 11:20:00,
2013-04-08 04:25:00,50.4,40.2,29.60,West,277,2.0,13.0,68,0.00,,FEW037,0.00,VWS V14.01,2013-04-08 11:25:00,
2013-04-08 04:30:00,50.3,40.2,29.60,WNW,284,8.0,12.0,68,0.00,,FEW037,0.00,VWS V14.01,2013-04-08 11:30:00,
2013-04-08 04:35:00,50.3,40.2,29.60,West,281,11.0,18.0,68,0.00,,FEW037,0.00,VWS V14.01,2013-04-08 11:35:00,
2013-04-08 04:41:00,50.3,39.8,29.60,West,271,9.0,11.0,67,0.00,,FEW037,0.00,VWS V14.01,2013-04-08 11:41:00,
2013-04-08 04:47:00,50.6,39.7,29.60,West,273,16.0,16.0,66,0.00,,FEW037,0.00,VWS V14.01,2013-04-08 11:47:00,
2013-04-08 04:52:00,50.7,39.0,29.60,West,267,12.0,16.0,64,0.00,,FEW037,0.00,VWS V14.01,2013-04-08 11:52:00,
2013-04-08 04:57:00,50.7,38.6,29.60,WNW,286,16.0,16.0,63,0.00,,FEW037,0.00,VWS V14.01,2013-04-08 11:57:00,
2013-04-08 05:03:00,50.6,38.5,29.60,West,273,22.0,22.0,63,0.00,,SCT038,0.00,VWS V14.01,2013-04-08 12:03:00,
2013-04-08 05:08:00,50.5,38.0,29.60,West,278,8.0,9.0,62,0.00,,SCT038,0.00,VWS V14.01,2013-04-08 12:08:00,
2013-04-08 05:13:00,50.4,37.9,29.61,West,279,11.0,12.0,62,0.00,,SCT038,0.00,VWS V14.01,2013-04-08 12:13:00,
2013-04-08 05:18:00,50.3,38.2,29.60,West,269,13.0,13.0,63,0.00,,SCT038,0.00,VWS V14.01,2013-04-08 12:18:00,
2013-04-08 05:23:00,50.2,38.1,29.60,West,267,5.0,13.0,63,0.00,,SCT038,0.00,VWS V14.01,2013-04-08 12:23:00,
2013-04-08 05:30:00,50.0,37.5,29.60,WNW,284,6.0,14.0,62,0.00,,SCT038,0.00,VWS V14.01,2013-04-08 12:30:00,
2013-04-08 05:35:00,49.9,37.4,29.60,West,277,6.0,15.0,62,0.00,,SCT038,0.00,VWS V14.01,2013-04-08 12:35:00,
2013-04-08 05:40:00,49.8,37.3,29.60,WSW,241,2.0,6.0,62,0.00,,SCT038,0.00,VWS V14.01,2013-04-08 12:40:00,
2013-04-08 05:45:00,49.7,39.6,29.58,SW,228,0.0,10.0,68,0.00,,SCT038,0.00,VWS V14.01,2013-04-08 12:45:00,
2013-04-08 05:50:00,49.6,40.2,29.59,WSW,242,6.0,7.0,70,0.00,,SCT038,0.00,VWS V14.01,2013-04-08 12:50:00,
2013-04-08 05:56:00,49.5,40.9,29.58,SW,234,2.0,6.0,72,0.00,,SCT038,0.00,VWS V14.01,2013-04-08 12:56:00,
2013-04-08 06:02:00,49.4,38.9,29.58,West,265,13.0,13.0,67,0.00,,FEW038,0.00,VWS V14.01,2013-04-08 13:02:00,
2013-04-08 06:07:00,49.9,36.6,29.58,SW,234,6.0,15.0,60,0.00,,FEW038,0.00,VWS V14.01,2013-04-08 13:07:00,
2013-04-08 06:12:00,50.4,34.9,29.59,WNW,290,5.0,13.0,55,0.00,,FEW038,0.00,VWS V14.01,2013-04-08 13:12:00,
2013-04-08 06:18:00,50.3,35.7,29.59,West,279,4.0,9.0,57,0.00,,FEW038,0.00,VWS V14.01,2013-04-08 13:18:00,
2013-04-08 06:23:00,49.9,34.8,29.59,West,263,3.0,7.0,56,0.00,,FEW038,0.00,VWS V14.01,2013-04-08 13:23:00,
2013-04-08 06:29:00,49.5,34.0,29.59,West,275,14.0,14.0,55,0.00,,FEW038,0.00,VWS V14.01,2013-04-08 13:29:00,
2013-04-08 06:35:00,49.4,32.0,29.58,West,271,6.0,14.0,51,0.00,,FEW038,0.00,VWS V14.01,2013-04-08 13:35:00,
2013-04-08 06:40:00,49.6,31.7,29.59,WNW,296,6.0,6.0,50,0.00,,FEW038,0.00,VWS V14.01,2013-04-08 13:40:00,
2013-04-08 06:45:00,49.7,30.8,29.59,West,270,11.0,11.0,48,0.00,,FEW038,0.00,VWS V14.01,2013-04-08 13:45:00,
2013-04-08 06:50:00,50.0,29.5,29.60,West,281,9.0,11.0,45,0.00,,FEW038,0.00,VWS V14.01,2013-04-08 13:50:00,
2013-04-08 06:56:00,50.6,30.1,29.60,NW,313,16.0,24.0,45,0.00,,FEW038,0.00,VWS V14.01,2013-04-08 13:56:00,
2013-04-08 07:01:00,50.6,31.1,29.60,WNW,290,11.0,24.0,47,0.00,,CLR,0.00,VWS V14.01,2013-04-08 14:01:00,
2013-04-08 07:06:00,50.4,29.9,29.59,West,280,12.0,24.0,45,0.00,,CLR,0.00,VWS V14.01,2013-04-08 14:06:00,
2013-04-08 07:11:00,50.4,28.8,29.59,West,263,17.0,24.0,43,0.00,,CLR,0.00,VWS V14.01,2013-04-08 14:11:00,
2013-04-08 07:16:00,50.3,29.2,29.60,West,278,12.0,17.0,44,0.00,,CLR,0.00,VWS V14.01,2013-04-08 14:16:00,
2013-04-08 07:22:00,50.2,31.3,29.60,WNW,292,9.0,17.0,48,0.00,,CLR,0.00,VWS V14.01,2013-04-08 14:22:00,
2013-04-08 07:27:00,50.0,32.1,29.59,WNW,288,12.0,17.0,50,0.00,,CLR,0.00,VWS V14.01,2013-04-08 14:27:00,
2013-04-08 07:32:00,50.0,32.1,29.59,West,275,14.0,17.0,50,0.00,,CLR,0.00,VWS V14.01,2013-04-08 14:32:00,
2013-04-08 07:38:00,50.0,31.1,29.59,WNW,286,18.0,18.0,48,0.00,,CLR,0.00,VWS V14.01,2013-04-08 14:38:00,
2013-04-08 07:43:00,50.1,30.7,29.59,West,276,19.0,19.0,47,0.00,,CLR,0.00,VWS V14.01,2013-04-08 14:43:00,
2013-04-08 07:50:00,49.6,26.9,29.61,WNW,284,22.0,26.0,41,0.00,,CLR,0.00,VWS V14.01,2013-04-08 14:50:00,
2013-04-08 07:55:00,49.3,26.6,29.61,WNW,284,21.0,26.0,41,0.00,,CLR,0.00,VWS V14.01,2013-04-08 14:55:00,
2013-04-08 08:00:00,48.9,25.7,29.61,NW,304,12.0,26.0,40,0.00,,CLR,0.00,VWS V14.01,2013-04-08 15:00:00,
2013-04-08 08:05:00,48.8,25.6,29.62,West,279,11.0,26.0,40,0.00,,,0.00,VWS V14.01,2013-04-08 15:05:00,
2013-04-08 08:12:00,48.8,26.7,29.62,WNW,292,11.0,26.0,42,0.00,,,0.00,VWS V14.01,2013-04-08 15:12:00,
2013-04-08 08:17:00,48.5,29.7,29.64,NW,307,17.0,26.0,48,0.00,,,0.00,VWS V14.01,2013-04-08 15:17:00,
2013-04-08 08:22:00,47.7,29.0,29.64,WNW,292,15.0,26.0,48,0.00,,,0.00,VWS V14.01,2013-04-08 15:22:00,
2013-04-08 08:28:00,46.5,27.4,29.65,WNW,290,15.0,26.0,47,0.00,,,0.00,VWS V14.01,2013-04-08 15:28:00,
2013-04-08 08:33:00,46.3,26.1,29.66,West,280,15.0,26.0,45,0.00,,,0.00,VWS V14.01,2013-04-08 15:33:00,
2013-04-08 08:39:00,46.0,25.9,29.65,West,275,13.0,15.0,45,0.00,,,0.00,VWS V14.01,2013-04-08 15:39:00,
2013-04-08 08:44:00,46.0,25.9,29.64,West,268,24.0,24.0,45,0.00,,,0.00,VWS V14.01,2013-04-08 15:44:00,
2013-04-08 08:49:00,46.2,26.0,29.66,NW,306,17.0,19.0,45,0.00,,,0.00,VWS V14.01,2013-04-08 15:49:00,
2013-04-08 08:55:00,46.5,27.4,29.66,WNW,301,9.0,24.0,47,0.00,,,0.00,VWS V14.01,2013-04-08 15:55:00,
2013-04-08 09:00:00,46.8,27.6,29.66,West,274,11.0,24.0,47,0.00,,,0.00,VWS V14.01,2013-04-08 16:00:00,
2013-04-08 09:05:00,46.7,28.1,29.66,West,278,22.0,24.0,48,0.00,,,0.00,VWS V14.01,2013-04-08 16:05:00,
2013-04-08 09:10:00,46.8,28.7,29.67,WNW,294,19.0,22.0,49,0.00,,,0.00,VWS V14.01,2013-04-08 16:10:00,
2013-04-08 09:16:00,46.7,29.1,29.66,West,281,16.0,22.0,50,0.00,,,0.00,VWS V14.01,2013-04-08 16:16:00,
2013-04-08 09:21:00,46.9,29.2,29.66,WNW,284,13.0,22.0,50,0.00,,,0.00,VWS V14.01,2013-04-08 16:21:00,
2013-04-08 09:26:00,46.8,29.2,29.65,WNW,283,23.0,23.0,50,0.00,,,0.00,VWS V14.01,2013-04-08 16:26:00,
2013-04-08 09:31:00,46.5,29.8,29.65,WNW,301,16.0,23.0,52,0.00,,,0.00,VWS V14.01,2013-04-08 16:31:00,
2013-04-08 09:36:00,46.6,29.5,29.65,WNW,282,18.0,23.0,51,0.00,,,0.00,VWS V14.01,2013-04-08 16:36:00,
2013-04-08 09:42:00,46.5,29.4,29.66,WNW,294,12.0,18.0,51,0.00,,,0.00,VWS V14.01,2013-04-08 16:42:00,
2013-04-08 09:47:00,46.8,30.1,29.65,WNW,290,19.0,19.0,52,0.00,,,0.00,VWS V14.01,2013-04-08 16:47:00,
2013-04-08 09:52:00,46.8,30.1,29.65,WNW,295,18.0,19.0,52,0.00,,,0.00,VWS V14.01,2013-04-08 16:52:00,
2013-04-08 09:57:00,47.5,30.8,29.65,West,272,23.0,23.0,52,0.00,,,0.00,VWS V14.01,2013-04-08 16:57:00,
2013-04-08 10:03:00,47.5,30.8,29.65,West,266,31.0,31.0,52,0.00,,,0.00,VWS V14.01,2013-04-08 17:03:00,
2013-04-08 10:08:00,47.4,31.6,29.66,NW,314,27.0,31.0,54,0.00,,,0.00,VWS V14.01,2013-04-08 17:08:00,
2013-04-08 10:13:00,47.5,31.7,29.65,West,274,33.0,33.0,54,0.00,,,0.00,VWS V14.01,2013-04-08 17:13:00,
2013-04-08 10:19:00,47.3,32.0,29.66,WSW,244,31.0,33.0,55,0.00,,,0.00,VWS V14.01,2013-04-08 17:19:00,
2013-04-08 10:27:00,47.6,32.2,29.66,WNW,296,21.0,31.0,55,0.00,,,0.00,VWS V14.01,2013-04-08 17:27:00,
2013-04-08 10:32:00,47.6,32.2,29.66,West,270,8.0,21.0,55,0.00,,-RA,0.00,VWS V14.01,2013-04-08 17:32:00,
2013-04-08 10:37:00,47.8,32.0,29.66,WNW,291,21.0,21.0,54,0.00,,-RA,0.00,VWS V14.01,2013-04-08 17:37:00,
2013-04-08 10:42:00,47.6,32.2,29.66,WSW,250,21.0,23.0,55,0.00,,-RA,0.00,VWS V14.01,2013-04-08 17:42:00,
2013-04-08 10:48:00,47.6,32.2,29.66,West,259,7.0,23.0,55,0.00,,-RA,0.00,VWS V14.01,2013-04-08 17:48:00,
2013-04-08 10:53:00,47.6,32.2,29.66,SW,228,23.0,23.0,55,0.00,,-RA,0.00,VWS V14.01,2013-04-08 17:53:00,
2013-04-08 10:58:00,48.2,33.3,29.66,WNW,292,15.0,23.0,56,0.00,,-RA,0.00,VWS V14.01,2013-04-08 17:58:00,
2013-04-08 11:04:00,49.2,32.8,29.66,West,277,14.0,15.0,53,0.00,,,0.00,VWS V14.01,2013-04-08 18:04:00,
2013-04-08 11:10:00,49.6,33.2,29.66,West,273,12.0,15.0,53,0.00,,,0.00,VWS V14.01,2013-04-08 18:10:00,
2013-04-08 11:15:00,50.0,32.6,29.65,West,276,8.0,8.0,51,0.00,,,0.00,VWS V14.01,2013-04-08 18:15:00,
2013-04-08 11:20:00,50.2,32.8,29.65,WNW,289,21.0,21.0,51,0.00,,,0.00,VWS V14.01,2013-04-08 18:20:00,
2013-04-08 11:25:00,50.5,33.1,29.65,WNW,283,9.0,21.0,51,0.00,,,0.00,VWS V14.01,2013-04-08 18:25:00,
2013-04-08 11:32:00,50.8,32.8,29.65,NW,308,23.0,23.0,50,0.00,,,0.00,VWS V14.01,2013-04-08 18:32:00,
2013-04-08 11:37:00,51.2,33.2,29.65,WNW,295,19.0,23.0,50,0.00,,,0.00,VWS V14.01,2013-04-08 18:37:00,
2013-04-08 11:42:00,51.5,33.5,29.64,WSW,242,8.0,23.0,50,0.00,,,0.00,VWS V14.01,2013-04-08 18:42:00,
2013-04-08 11:47:00,51.7,33.7,29.65,WSW,257,11.0,14.0,50,0.00,,,0.00,VWS V14.01,2013-04-08 18:47:00,
2013-04-08 11:53:00,51.9,33.9,29.65,WNW,285,13.0,14.0,50,0.00,,,0.00,VWS V14.01,2013-04-08 18:53:00,
2013-04-08 11:58:00,52.1,32.5,29.65,West,266,11.0,11.0,47,0.00,,,0.00,VWS V14.01,2013-04-08 18:58:00,
2013-04-08 12:04:00,52.1,33.5,29.65,WNW,287,22.0,22.0,49,0.00,,,0.00,VWS V14.01,2013-04-08 19:04:00,
2013-04-08 12:10:00,51.8,33.3,29.64,WSW,247,13.0,22.0,49,0.00,,,0.00,VWS V14.01,2013-04-08 19:10:00,
2013-04-08 12:15:00,51.8,32.8,29.64,West,274,25.0,25.0,48,0.00,,,0.00,VWS V14.01,2013-04-08 19:15:00,
2013-04-08 12:21:00,51.5,33.5,29.64,West,279,14.0,25.0,50,0.00,,,0.00,VWS V14.01,2013-04-08 19:21:00,
2013-04-08 12:26:00,51.4,33.4,29.64,NW,307,12.0,14.0,50,0.00,,,0.00,VWS V14.01,2013-04-08 19:26:00,
2013-04-08 12:31:00,51.7,33.7,29.63,West,265,8.0,23.0,50,0.00,,,0.00,VWS V14.01,2013-04-08 19:31:00,
2013-04-08 12:36:00,51.9,33.4,29.62,WNW,286,11.0,23.0,49,0.00,,,0.00,VWS V14.01,2013-04-08 19:36:00,
2013-04-08 12:42:00,52.1,33.5,29.62,WNW,283,22.0,23.0,49,0.00,,,0.00,VWS V14.01,2013-04-08 19:42:00,
2013-04-08 12:47:00,52.4,33.3,29.62,WNW,282,16.0,23.0,48,0.00,,,0.00,VWS V14.01,2013-04-08 19:47:00,
2013-04-08 12:52:00,52.8,33.7,29.62,West,269,18.0,18.0,48,0.00,,,0.00,VWS V14.01,2013-04-08 19:52:00,
2013-04-08 12:57:00,52.8,33.2,29.63,NW,304,8.0,18.0,47,0.00,,,0.00,VWS V14.01,2013-04-08 19:57:00,
2013-04-08 13:02:00,52.7,33.0,29.63,West,275,12.0,18.0,47,0.00,,-RA,0.00,VWS V14.01,2013-04-08 20:02:00,
2013-04-08 13:08:00,53.2,33.0,29.63,WNW,284,13.0,13.0,46,0.00,,-RA,0.00,VWS V14.01,2013-04-08 20:08:00,
2013-04-08 13:13:00,53.2,33.0,29.64,NW,310,19.0,19.0,46,0.00,,-RA,0.00,VWS V14.01,2013-04-08 20:13:00,
2013-04-08 13:18:00,53.0,33.8,29.64,West,268,6.0,6.0,48,0.00,,-RA,0.00,VWS V14.01,2013-04-08 20:18:00,
2013-04-08 13:23:00,53.3,33.6,29.63,WNW,290,29.0,29.0,47,0.00,,-RA,0.00,VWS V14.01,2013-04-08 20:23:00,
2013-04-08 13:29:00,53.0,33.3,29.63,WNW,294,20.0,20.0,47,0.00,,-RA,0.00,VWS V14.01,2013-04-08 20:29:00,
2013-04-08 13:34:00,52.9,33.8,29.62,WNW,302,20.0,20.0,48,0.00,,-RA,0.00,VWS V14.01,2013-04-08 20:34:00,
2013-04-08 13:39:00,53.3,33.6,29.61,WNW,289,26.0,26.0,47,0.00,,-RA,0.00,VWS V14.01,2013-04-08 20:39:00,
2013-04-08 13:45:00,53.2,33.5,29.62,West,261,12.0,26.0,47,0.00,,-RA,0.00,VWS V14.01,2013-04-08 20:45:00,
2013-04-08 13:50:00,53.2,34.0,29.62,West,261,19.0,26.0,48,0.00,,-RA,0.00,VWS V14.01,2013-04-08 20:50:00,
2013-04-08 13:55:00,53.3,33.6,29.61,WNW,282,34.0,34.0,47,0.00,,-RA,0.00,VWS V14.01,2013-04-08 20:55:00,
2013-04-08 14:00:00,53.2,34.0,29.60,WNW,291,23.0,34.0,48,0.00,,-RA,0.00,VWS V14.01,2013-04-08 21:00:00,
2013-04-08 14:06:00,53.1,33.4,29.60,WNW,297,24.0,24.0,47,0.00,,,0.00,VWS V14.01,2013-04-08 21:06:00,
2013-04-08 14:12:00,52.9,33.8,29.60,West,259,31.0,37.0,48,0.00,,,0.00,VWS V14.01,2013-04-08 21:12:00,
2013-04-08 14:17:00,52.7,33.0,29.60,West,277,14.0,37.0,47,0.00,,,0.00,VWS V14.01,2013-04-08 21:17:00,
2013-04-08 14:22:00,52.4,32.8,29.60,WNW,302,31.0,31.0,47,0.00,,,0.00,VWS V14.01,2013-04-08 21:22:00,
2013-04-08 14:27:00,52.2,33.6,29.62,WNW,290,23.0,31.0,49,0.00,,,0.00,VWS V14.01,2013-04-08 21:27:00,
2013-04-08 14:33:00,52.2,33.6,29.62,WNW,298,16.0,31.0,49,0.00,,,0.00,VWS V14.01,2013-04-08 21:33:00,
2013-04-08 14:38:00,51.7,33.7,29.63,WNW,302,17.0,31.0,50,0.00,,,0.00,VWS V14.01,2013-04-08 21:38:00,
2013-04-08 14:45:00,51.8,33.8,29.64,West,275,30.0,30.0,50,0.00,,,0.00,VWS V14.01,2013-04-08 21:45:00,
2013-04-08 14:50:00,51.8,33.8,29.65,NW,305,14.0,30.0,50,0.00,,,0.00,VWS V14.01,2013-04-08 21:50:00,
2013-04-08 14:55:00,52.0,34.5,29.64,WNW,300,17.0,30.0,51,0.00,,,0.00,VWS V14.01,2013-04-08 21:55:00,
2013-04-08 15:00:00,52.4,34.3,29.64,WNW,300,24.0,24.0,50,0.00,,,0.00,VWS V14.01,2013-04-08 22:00:00,
2013-04-08 15:06:00,52.4,34.3,29.64,WNW,290,19.0,24.0,50,0.00,,,0.00,VWS V14.01,2013-04-08 22:06:00,
2013-04-08 15:11:00,51.9,33.9,29.63,WNW,286,23.0,24.0,50,0.00,,,0.00,VWS V14.01,2013-04-08 22:11:00,
2013-04-08 15:16:00,51.7,34.2,29.63,WNW,284,24.0,24.0,51,0.00,,,0.00,VWS V14.01,2013-04-08 22:16:00,
2013-04-08 15:22:00,51.8,33.8,29.63,WNW,298,18.0,29.0,50,0.00,,,0.00,VWS V14.01,2013-04-08 22:22:00,
2013-04-08 15:27:00,51.8,33.8,29.63,WNW,303,35.0,35.0,50,0.00,,,0.00,VWS V14.01,2013-04-08 22:27:00,
2013-04-08 15:32:00,51.7,34.2,29.64,NW,321,24.0,35.0,51,0.00,,,0.00,VWS V14.01,2013-04-08 22:32:00,
2013-04-08 15:38:00,51.8,33.8,29.63,WNW,284,24.0,35.0,50,0.00,,,0.00,VWS V14.01,2013-04-08 22:38:00,
2013-04-08 15:43:00,51.9,33.9,29.64,West,275,23.0,24.0,50,0.00,,,0.00,VWS V14.01,2013-04-08 22:43:00,
2013-04-08 15:50:00,52.5,33.9,29.62,NW,305,8.0,24.0,49,0.00,,,0.00,VWS V14.01,2013-04-08 22:50:00,
2013-04-08 15:55:00,52.5,33.9,29.64,West,280,12.0,24.0,49,0.00,,,0.00,VWS V14.01,2013-04-08 22:55:00,
2013-04-08 16:00:00,52.4,34.3,29.63,WNW,289,23.0,24.0,50,0.00,,,0.00,VWS V14.01,2013-04-08 23:00:00,
2013-04-08 16:05:00,52.1,35.0,29.64,NW,314,18.0,24.0,52,0.00,,,0.00,VWS V14.01,2013-04-08 23:05:00,
2013-04-08 16:11:00,52.1,35.0,29.63,WNW,297,27.0,27.0,52,0.00,,,0.00,VWS V14.01,2013-04-08 23:11:00,
2013-04-08 16:17:00,51.8,34.8,29.62,West,274,13.0,32.0,52,0.00,,,0.00,VWS V14.01,2013-04-08 23:17:00,
2013-04-08 16:22:00,51.9,34.4,29.62,WSW,246,15.0,32.0,51,0.00,,,0.00,VWS V14.01,2013-04-08 23:22:00,
2013-04-08 16:27:00,51.9,34.8,29.62,West,263,22.0,32.0,52,0.00,,,0.00,VWS V14.01,2013-04-08 23:27:00,
2013-04-08 16:33:00,51.8,34.8,29.62,WNW,292,28.0,32.0,52,0.00,,,0.00,VWS V14.01,2013-04-08 23:33:00,
2013-04-08 16:38:00,51.8,34.8,29.63,WNW,290,26.0,32.0,52,0.00,,,0.00,VWS V14.01,2013-04-08 23:38:00,
2013-04-08 16:43:00,52.0,34.5,29.63,West,274,25.0,32.0,51,0.00,,,0.00,VWS V14.01,2013-04-08 23:43:00,
2013-04-08 16:48:00,52.4,33.3,29.63,WNW,303,13.0,34.0,48,0.00,,,0.00,VWS V14.01,2013-04-08 23:48:00,
2013-04-08 16:53:00,52.4,33.8,29.64,NW,309,22.0,34.0,49,0.00,,,0.00,VWS V14.01,2013-04-08 23:53:00,
2013-04-08 17:00:00,52.0,34.0,29.64,WNW,293,31.0,31.0,50,0.00,,,0.00,VWS V14.01,2013-04-09 00:00:00,
2013-04-08 17:05:00,52.1,34.5,29.64,NW,308,14.0,16.0,51,0.00,,,0.00,VWS V14.01,2013-04-09 00:05:00,
2013-04-08 17:10:00,52.0,34.5,29.65,WNW,284,20.0,20.0,51,0.00,,,0.00,VWS V14.01,2013-04-09 00:10:00,
2013-04-08 17:15:00,52.4,33.3,29.65,West,274,11.0,20.0,48,0.00,,,0.00,VWS V14.01,2013-04-09 00:15:00,
2013-04-08 17:20:00,52.7,33.0,29.65,WNW,291,22.0,22.0,47,0.00,,,0.00,VWS V14.01,2013-04-09 00:20:00,
2013-04-08 17:25:00,52.7,32.5,29.65,WNW,286,20.0,26.0,46,0.00,,,0.00,VWS V14.01,2013-04-09 00:25:00,
2013-04-08 17:32:00,52.6,32.4,29.66,NW,315,28.0,28.0,46,0.00,,,0.00,VWS V14.01,2013-04-09 00:32:00,
2013-04-08 17:37:00,52.6,33.0,29.66,NW,310,28.0,28.0,47,0.00,,,0.00,VWS V14.01,2013-04-09 00:37:00,
2013-04-08 17:42:00,52.6,33.0,29.66,WNW,301,23.0,28.0,47,0.00,,,0.00,VWS V14.01,2013-04-09 00:42:00,
2013-04-08 17:48:00,52.7,32.5,29.66,WNW,298,8.0,28.0,46,0.00,,,0.00,VWS V14.01,2013-04-09 00:48:00,
2013-04-08 17:53:00,52.7,32.5,29.66,WNW,290,18.0,28.0,46,0.00,,,0.00,VWS V14.01,2013-04-09 00:53:00,
2013-04-08 17:58:00,52.6,32.4,29.67,WNW,297,27.0,28.0,46,0.00,,,0.00,VWS V14.01,2013-04-09 00:58:00,
2013-04-08 18:03:00,52.4,32.2,29.67,WNW,285,15.0,28.0,46,0.00,,,0.00,VWS V14.01,2013-04-09 01:03:00,
2013-04-08 18:10:00,52.0,32.9,29.67,WNW,302,19.0,23.0,48,0.00,,,0.00,VWS V14.01,2013-04-09 01:10:00,
2013-04-08 18:15:00,51.8,32.8,29.68,NNW,338,23.0,23.0,48,0.00,,,0.00,VWS V14.01,2013-04-09 01:15:00,
2013-04-08 18:21:00,51.5,32.5,29.67,West,268,24.0,25.0,48,0.00,,,0.00,VWS V14.01,2013-04-09 01:21:00,
2013-04-08 18:27:00,51.3,32.8,29.68,WNW,288,24.0,25.0,49,0.00,,,0.00,VWS V14.01,2013-04-09 01:27:00,
2013-04-08 18:32:00,51.2,33.2,29.69,NW,305,19.0,25.0,50,0.00,,,0.00,VWS V14.01,2013-04-09 01:32:00,
2013-04-08 18:37:00,51.1,33.6,29.69,NW,314,18.0,25.0,51,0.00,,,0.00,VWS V14.01,2013-04-09 01:37:00,
2013-04-08 18:43:00,51.0,33.5,29.70,WNW,303,13.0,18.0,51,0.00,,,0.00,VWS V14.01,2013-04-09 01:43:00,
2013-04-08 18:48:00,50.7,33.7,29.70,WNW,294,12.0,23.0,52,0.00,,,0.00,VWS V14.01,2013-04-09 01:48:00,
2013-04-08 18:54:00,50.6,33.6,29.70,WNW,290,7.0,23.0,52,0.00,,,0.00,VWS V14.01,2013-04-09 01:54:00,
2013-04-08 18:59:00,50.3,33.8,29.70,West,266,20.0,20.0,53,0.00,,,0.00,VWS V14.01,2013-04-09 01:59:00,
2013-04-08 19:04:00,50.2,34.2,29.70,WNW,286,15.0,20.0,54,0.00,,,0.00,VWS V14.01,2013-04-09 02:04:00,
2013-04-08 19:09:00,49.8,34.3,29.70,WNW,296,18.0,24.0,55,0.00,,,0.00,VWS V14.01,2013-04-09 02:09:00,
2013-04-08 19:14:00,49.7,34.7,29.70,WNW,293,22.0,24.0,56,0.00,,,0.00,VWS V14.01,2013-04-09 02:14:00,
2013-04-08 19:20:00,49.5,34.0,29.71,West,280,9.0,12.0,55,0.00,,,0.00,VWS V14.01,2013-04-09 02:20:00,
2013-04-08 19:25:00,49.3,34.3,29.71,West,274,13.0,13.0,56,0.00,,,0.00,VWS V14.01,2013-04-09 02:25:00,
2013-04-08 19:31:00,49.1,34.5,29.72,WNW,290,8.0,13.0,57,0.00,,,0.00,VWS V14.01,2013-04-09 02:31:00,
2013-04-08 19:36:00,48.9,34.3,29.72,West,276,8.0,12.0,57,0.00,,,0.00,VWS V14.01,2013-04-09 02:36:00,
2013-04-08 19:42:00,48.9,34.3,29.73,WNW,284,0.0,7.0,57,0.00,,,0.00,VWS V14.01,2013-04-09 02:42:00,
2013-04-08 19:47:00,48.8,34.3,29.73,WNW,284,4.0,4.0,57,0.00,,,0.00,VWS V14.01,2013-04-09 02:47:00,
2013-04-08 19:53:00,48.9,33.9,29.73,WNW,288,7.0,7.0,56,0.00,,,0.00,VWS V14.01,2013-04-09 02:53:00,
2013-04-08 19:58:00,49.1,34.1,29.73,WNW,290,11.0,12.0,56,0.00,,,0.00,VWS V14.01,2013-04-09 02:58:00,
2013-04-08 20:03:00,49.2,34.2,29.73,WNW,301,22.0,22.0,56,0.00,,,0.00,VWS V14.01,2013-04-09 03:03:00,
2013-04-08 20:08:00,49.4,34.4,29.73,WNW,293,9.0,12.0,56,0.00,,,0.00,VWS V14.01,2013-04-09 03:08:00,
2013-04-08 20:13:00,49.5,34.0,29.73,WNW,294,8.0,8.0,55,0.00,,,0.00,VWS V14.01,2013-04-09 03:13:00,
2013-04-08 20:18:00,49.5,34.0,29.73,WNW,291,9.0,11.0,55,0.00,,,0.00,VWS V14.01,2013-04-09 03:18:00,
2013-04-08 20:23:00,49.4,34.4,29.73,WNW,295,6.0,13.0,56,0.00,,,0.00,VWS V14.01,2013-04-09 03:23:00,
2013-04-08 20:30:00,49.4,34.4,29.73,NW,304,13.0,16.0,56,0.00,,,0.00,VWS V14.01,2013-04-09 03:30:00,
2013-04-08 20:35:00,49.3,34.3,29.73,WNW,286,19.0,19.0,56,0.00,,SCT024,0.00,VWS V14.01,2013-04-09 03:35:00,
2013-04-08 20:40:00,49.3,34.3,29.74,NW,304,17.0,17.0,56,0.00,,SCT024,0.00,VWS V14.01,2013-04-09 03:40:00,
2013-04-08 20:46:00,49.4,34.4,29.74,NW,304,13.0,17.0,56,0.00,,SCT024,0.00,VWS V14.01,2013-04-09 03:46:00,
2013-04-08 20:51:00,49.4,34.4,29.74,WNW,296,7.0,13.0,56,0.00,,SCT024,0.00,VWS V14.01,2013-04-09 03:51:00,
2013-04-08 20:56:00,49.4,34.4,29.75,WNW,296,8.0,8.0,56,0.00,,SCT024,0.00,VWS V14.01,2013-04-09 03:56:00,
2013-04-08 21:00:00,49.4,34.4,29.75,WNW,298,12.0,12.0,56,0.00,,SCT024,0.00,VWS V14.01,2013-04-09 04:00:00,
2013-04-08 21:02:00,49.4,34.4,29.75,WNW,297,11.0,13.0,56,0.00,,CLR,0.00,VWS V14.01,2013-04-09 04:02:00,
2013-04-08 21:05:00,49.4,34.4,29.75,WNW,300,0.0,13.0,56,0.00,,CLR,0.00,VWS V14.01,2013-04-09 04:05:00,
2013-04-08 21:10:00,49.3,34.3,29.75,WNW,288,14.0,14.0,56,0.00,,CLR,0.00,VWS V14.01,2013-04-09 04:10:00,
2013-04-08 21:15:00,49.3,34.3,29.75,WNW,300,9.0,14.0,56,0.00,,CLR,0.00,VWS V14.01,2013-04-09 04:15:00,
2013-04-08 21:20:00,49.4,34.4,29.75,WNW,296,5.0,12.0,56,0.00,,CLR,0.00,VWS V14.01,2013-04-09 04:20:00,
2013-04-08 21:25:00,49.5,34.5,29.76,NW,311,9.0,13.0,56,0.00,,CLR,0.00,VWS V14.01,2013-04-09 04:25:00,
2013-04-08 21:30:00,49.7,34.2,29.76,WNW,298,12.0,13.0,55,0.00,,CLR,0.00,VWS V14.01,2013-04-09 04:30:00,
2013-04-08 21:36:00,49.9,34.4,29.77,WNW,301,12.0,13.0,55,0.00,,CLR,0.00,VWS V14.01,2013-04-09 04:36:00,
2013-04-08 21:41:00,49.9,34.4,29.77,WNW,296,12.0,12.0,55,0.00,,CLR,0.00,VWS V14.01,2013-04-09 04:41:00,
2013-04-08 21:47:00,50.0,34.5,29.78,WNW,290,15.0,15.0,55,0.00,,CLR,0.00,VWS V14.01,2013-04-09 04:47:00,
2013-04-08 21:52:00,50.0,34.5,29.78,WNW,300,7.0,18.0,55,0.00,,CLR,0.00,VWS V14.01,2013-04-09 04:52:00,
2013-04-08 21:57:00,50.0,34.5,29.79,NW,309,0.0,2.0,55,0.00,,CLR,0.00,VWS V14.01,2013-04-09 04:57:00,
2013-04-08 22:03:00,49.9,34.4,29.79,WNW,292,6.0,9.0,55,0.00,,CLR,0.00,VWS V14.01,2013-04-09 05:03:00,
2013-04-08 22:08:00,49.7,34.2,29.79,WNW,300,4.0,15.0,55,0.00,,CLR,0.00,VWS V14.01,2013-04-09 05:08:00,
2013-04-08 22:13:00,49.7,34.7,29.78,WNW,303,8.0,16.0,56,0.00,,CLR,0.00,VWS V14.01,2013-04-09 05:13:00,
2013-04-08 22:18:00,49.6,34.6,29.79,WNW,290,9.0,11.0,56,0.00,,CLR,0.00,VWS V14.01,2013-04-09 05:18:00,
2013-04-08 22:27:00,49.4,34.4,29.79,WNW,288,13.0,13.0,56,0.00,,CLR,0.00,VWS V14.01,2013-04-09 05:27:00,
2013-04-08 22:32:00,49.4,34.4,29.79,NW,319,15.0,15.0,56,0.00,,CLR,0.00,VWS V14.01,2013-04-09 05:32:00,
2013-04-08 22:37:00,49.4,34.4,29.79,WNW,284,12.0,19.0,56,0.00,,CLR,0.00,VWS V14.01,2013-04-09 05:37:00,
2013-04-08 22:42:00,49.3,34.3,29.79,WNW,296,8.0,11.0,56,0.00,,CLR,0.00,VWS V14.01,2013-04-09 05:42:00,
2013-04-08 22:48:00,49.2,34.2,29.80,West,278,12.0,15.0,56,0.00,,CLR,0.00,VWS V14.01,2013-04-09 05:48:00,
2013-04-08 22:53:00,49.2,34.2,29.80,WNW,296,7.0,15.0,56,0.00,,CLR,0.00,VWS V14.01,2013-04-09 05:53:00,
2013-04-08 22:58:00,49.1,34.1,29.79,West,270,15.0,15.0,56,0.00,,CLR,0.00,VWS V14.01,2013-04-09 05:58:00,
2013-04-08 23:03:00,49.0,34.0,29.79,WNW,283,13.0,15.0,56,0.00,,OVC090,0.00,VWS V14.01,2013-04-09 06:03:00,
2013-04-08 23:08:00,49.0,34.0,29.80,WNW,285,7.0,11.0,56,0.00,,OVC090,0.00,VWS V14.01,2013-04-09 06:08:00,
2013-04-08 23:15:00,49.0,34.0,29.80,WNW,289,7.0,15.0,56,0.00,,OVC090,0.00,VWS V14.01,2013-04-09 06:15:00,
2013-04-08 23:20:00,49.0,34.0,29.80,WNW,294,9.0,20.0,56,0.00,,OVC090,0.00,VWS V14.01,2013-04-09 06:20:00,
2013-04-08 23:25:00,49.1,34.1,29.80,West,271,19.0,20.0,56,0.00,,OVC090,0.00,VWS V14.01,2013-04-09 06:25:00,
2013-04-08 23:30:00,49.1,34.1,29.80,WNW,287,4.0,16.0,56,0.00,,OVC090,0.00,VWS V14.01,2013-04-09 06:30:00,
2013-04-08 23:35:00,49.1,34.1,29.80,West,279,7.0,18.0,56,0.00,,OVC090,0.00,VWS V14.01,2013-04-09 06:35:00,
2013-04-08 23:42:00,49.1,34.1,29.80,West,277,9.0,9.0,56,0.00,,OVC090,0.00,VWS V14.01,2013-04-09 06:42:00,
2013-04-08 23:47:00,48.9,33.9,29.80,NW,304,13.0,13.0,56,0.00,,OVC090,0.00,VWS V14.01,2013-04-09 06:47:00,
2013-04-08 23:54:00,48.7,33.3,29.81,WNW,295,8.0,12.0,55,0.00,,OVC090,0.00,VWS V14.01,2013-04-09 06:54:00,
2013-04-08 23:59:00,48.7,33.3,29.81,WNW,298,7.0,8.0,55,0.00,,OVC090,0.00,VWS V14.01,2013-04-09 06:59:00,